• In Slovakia
  • List of Countries
  • For 7 days
  • Water Temperature
  • Satellite Maps
  • Weather Map
  • Weather Widgets
  • user-avatar
    Login

    Hourly Weather Nashavar

    Today, 18 June, Monday

    Time Temperature Precipitation Wind Pressure Humidity
    00:00 +34°C° 0.6 mm 3 mps 723 mmHg 45%
    01:00 +34°C° 0.6 mm 2 mps 723 mmHg 47%
    02:00 +32°C° 0.6 mm 2 mps 723 mmHg 49%
    03:00 +32°C° 0.7 mm 2 mps 723 mmHg 51%
    04:00 +31°C° 0.7 mm 2 mps 723 mmHg 53%
    05:00 +30°C° 0 mm 1 mps 722 mmHg 60%
    06:00 +31°C° 0.5 mm 1 mps 722 mmHg 57%
    07:00 +31°C° 0.5 mm 1 mps 723 mmHg 54%
    08:00 +32°C° 0.5 mm 1 mps 723 mmHg 51%
    09:00 +33°C° 0 mm 1 mps 723 mmHg 46%
    10:00 +35°C° 0 mm 1 mps 723 mmHg 42%
    11:00 +37°C° 0 mm 2 mps 722 mmHg 35%
    12:00 +38°C° 0 mm 2 mps 722 mmHg 33%
    13:00 +39°C° 0 mm 2 mps 722 mmHg 31%
    14:00 +40°C° 0 mm 3 mps 722 mmHg 28%
    15:00 +40°C° 0 mm 3 mps 722 mmHg 28%
    16:00 +40°C° 0 mm 2 mps 722 mmHg 27%
    17:00 +39°C° 0 mm 3 mps 722 mmHg 30%
    18:00 +39°C° 0.1 mm 3 mps 722 mmHg 32%
    19:00 +38°C° 0.1 mm 2 mps 722 mmHg 34%
    20:00 +37°C° 0.1 mm 2 mps 722 mmHg 36%
    21:00 +37°C° 0.3 mm 2 mps 723 mmHg 38%
    22:00 +36°C° 0.3 mm 2 mps 723 mmHg 41%
    23:00 +36°C° 0.3 mm 2 mps 723 mmHg 43%

    Tomorrow, 19 June, Tuesday

    Time Temperature Precipitation Wind Pressure Humidity
    00:00 +35°C° 0.7 mm 2 mps 723 mmHg 45%
    01:00 +34°C° 0.7 mm 2 mps 723 mmHg 47%
    02:00 +34°C° 0.7 mm 2 mps 723 mmHg 50%
    03:00 +32°C° 0.6 mm 2 mps 723 mmHg 51%
    04:00 +31°C° 0.6 mm 2 mps 723 mmHg 53%
    05:00 +31°C° 0.6 mm 1 mps 723 mmHg 55%
    06:00 +31°C° 0.1 mm 1 mps 723 mmHg 51%
    07:00 +32°C° 0.1 mm 1 mps 723 mmHg 48%
    08:00 +33°C° 0.1 mm 1 mps 723 mmHg 45%
    09:00 +34°C° 0 mm 1 mps 723 mmHg 41%
    10:00 +35°C° 0 mm 1 mps 723 mmHg 37%
    11:00 +37°C° 0 mm 1 mps 723 mmHg 32%
    12:00 +39°C° 0 mm 1 mps 723 mmHg 30%
    13:00 +40°C° 0 mm 2 mps 722 mmHg 28%
    14:00 +41°C° 0 mm 2 mps 722 mmHg 25%
    15:00 +41°C° 0 mm 2 mps 722 mmHg 24%
    16:00 +41°C° 0 mm 2 mps 722 mmHg 24%
    17:00 +41°C° 0 mm 2 mps 721 mmHg 23%
    18:00 +41°C° 0 mm 2 mps 722 mmHg 25%
    19:00 +40°C° 0 mm 2 mps 722 mmHg 26%
    20:00 +39°C° 0 mm 2 mps 722 mmHg 28%
    21:00 +39°C° 0 mm 2 mps 722 mmHg 30%
    22:00 +37°C° 0 mm 1 mps 722 mmHg 31%
    23:00 +37°C° 0 mm 1 mps 723 mmHg 33%

    Day after tomorrow, 20 June, Wednesday

    Time Temperature Precipitation Wind Pressure Humidity
    00:00 +36°C° 0.1 mm 1 mps 723 mmHg 34%
    01:00 +35°C° 0.1 mm 1 mps 723 mmHg 35%
    02:00 +36°C° 0.1 mm 2 mps 722 mmHg 35%
    03:00 +35°C° 0.1 mm 2 mps 722 mmHg 35%
    04:00 +35°C° 0.1 mm 2 mps 723 mmHg 36%
    05:00 +34°C° 0.1 mm 2 mps 723 mmHg 36%
    06:00 +35°C° 0 mm 2 mps 723 mmHg 31%
    07:00 +36°C° 0 mm 2 mps 723 mmHg 27%
    08:00 +37°C° 0 mm 2 mps 723 mmHg 22%
    09:00 +38°C° 0 mm 2 mps 723 mmHg 20%
    10:00 +40°C° 0 mm 2 mps 723 mmHg 17%
    11:00 +41°C° 0 mm 2 mps 723 mmHg 15%
    12:00 +42°C° 0 mm 2 mps 723 mmHg 14%
    13:00 +43°C° 0 mm 1 mps 723 mmHg 12%
    14:00 +44°C° 0 mm 1 mps 722 mmHg 11%
    15:00 +44°C° 0 mm 1 mps 722 mmHg 12%
    16:00 +44°C° 0 mm 1 mps 722 mmHg 12%
    17:00 +45°C° 0 mm 2 mps 721 mmHg 12%
    18:00 +43°C° 0.1 mm 1 mps 722 mmHg 14%
    19:00 +42°C° 0.1 mm 1 mps 722 mmHg 16%
    20:00 +41°C° 0.1 mm 1 mps 722 mmHg 19%
    21:00 +40°C° 0 mm 2 mps 723 mmHg 19%
    22:00 +39°C° 0 mm 2 mps 723 mmHg 19%
    23:00 +39°C° 0 mm 2 mps 723 mmHg 19%

    21 June, Thursday

    Time Temperature Precipitation Wind Pressure Humidity
    00:00 +38°C° 0 mm 2 mps 723 mmHg 19%
    01:00 +37°C° 0 mm 3 mps 723 mmHg 19%
    02:00 +36°C° 0 mm 3 mps 723 mmHg 19%
    03:00 +36°C° 0 mm 3 mps 723 mmHg 19%
    04:00 +35°C° 0 mm 3 mps 723 mmHg 19%
    05:00 +34°C° 0 mm 3 mps 723 mmHg 20%
    06:00 +36°C° 0 mm 3 mps 723 mmHg 18%
    07:00 +37°C° 0 mm 3 mps 723 mmHg 17%
    08:00 +38°C° 0 mm 3 mps 723 mmHg 15%
    09:00 +39°C° 0 mm 3 mps 723 mmHg 14%
    10:00 +42°C° 0 mm 3 mps 723 mmHg 13%
    11:00 +43°C° 0 mm 3 mps 723 mmHg 12%
    12:00 +43°C° 0 mm 2 mps 722 mmHg 11%
    13:00 +45°C° 0 mm 2 mps 722 mmHg 11%
    14:00 +44°C° 0 mm 1 mps 721 mmHg 10%
    15:00 +45°C° 0 mm 2 mps 721 mmHg 11%
    16:00 +46°C° 0 mm 2 mps 721 mmHg 11%
    17:00 +46°C° 0 mm 2 mps 721 mmHg 11%
    18:00 +45°C° 0 mm 2 mps 721 mmHg 13%
    19:00 +43°C° 0 mm 2 mps 721 mmHg 14%
    20:00 +42°C° 0 mm 1 mps 721 mmHg 15%
    21:00 +41°C° 0 mm 1 mps 722 mmHg 16%
    22:00 +41°C° 0 mm 1 mps 722 mmHg 16%
    23:00 +40°C° 0 mm 1 mps 722 mmHg 17%

    22 June, Friday

    Time Temperature Precipitation Wind Pressure Humidity
    00:00 +39°C° 0.1 mm 2 mps 722 mmHg 19%
    01:00 +38°C° 0.1 mm 2 mps 722 mmHg 20%
    02:00 +37°C° 0.1 mm 2 mps 722 mmHg 22%
    03:00 +36°C° 0.2 mm 2 mps 722 mmHg 23%
    04:00 +36°C° 0.2 mm 3 mps 722 mmHg 24%
    05:00 +35°C° 0.2 mm 3 mps 722 mmHg 25%
    06:00 +36°C° 0.1 mm 3 mps 722 mmHg 23%
    07:00 +37°C° 0.1 mm 3 mps 723 mmHg 21%
    08:00 +38°C° 0.1 mm 3 mps 723 mmHg 19%
    09:00 +39°C° 0 mm 3 mps 723 mmHg 18%
    10:00 +41°C° 0 mm 4 mps 723 mmHg 17%
    11:00 +43°C° 0 mm 4 mps 723 mmHg 16%
    12:00 +43°C° 0 mm 3 mps 723 mmHg 16%
    13:00 +44°C° 0 mm 3 mps 722 mmHg 15%
    14:00 +45°C° 0 mm 2 mps 722 mmHg 14%
    15:00 +45°C° 0 mm 2 mps 722 mmHg 15%
    16:00 +45°C° 0 mm 2 mps 721 mmHg 15%
    17:00 +45°C° 0 mm 2 mps 721 mmHg 15%
    18:00 +43°C° 0 mm 2 mps 722 mmHg 17%
    19:00 +42°C° 0 mm 2 mps 722 mmHg 18%
    20:00 +41°C° 0 mm 2 mps 723 mmHg 20%
    21:00 +40°C° 0.1 mm 2 mps 723 mmHg 21%
    22:00 +39°C° 0.1 mm 3 mps 723 mmHg 23%
    23:00 +39°C° 0.1 mm 3 mps 723 mmHg 24%

    23 June, Saturday

    Time Temperature Precipitation Wind Pressure Humidity
    00:00 +38°C° 0.3 mm 3 mps 723 mmHg 25%
    01:00 +37°C° 0.3 mm 3 mps 723 mmHg 26%
    02:00 +37°C° 0.3 mm 3 mps 723 mmHg 27%
    03:00 +36°C° 0.1 mm 3 mps 723 mmHg 27%
    04:00 +36°C° 0.1 mm 3 mps 723 mmHg 27%
    05:00 +35°C° 0.1 mm 2 mps 722 mmHg 26%
    06:00 +36°C° 0 mm 2 mps 723 mmHg 24%
    07:00 +37°C° 0 mm 3 mps 723 mmHg 22%
    08:00 +38°C° 0 mm 3 mps 723 mmHg 19%
    09:00 +40°C° 0 mm 2 mps 723 mmHg 18%
    10:00 +41°C° 0 mm 2 mps 723 mmHg 17%
    11:00 +42°C° 0 mm 2 mps 723 mmHg 16%
    12:00 +43°C° 0 mm 2 mps 722 mmHg 15%
    13:00 +45°C° 0 mm 2 mps 722 mmHg 15%
    14:00 +45°C° 0 mm 1 mps 721 mmHg 14%
    15:00 +46°C° 0 mm 2 mps 721 mmHg 14%
    16:00 +46°C° 0 mm 2 mps 721 mmHg 13%
    17:00 +46°C° 0 mm 2 mps 720 mmHg 13%
    18:00 +45°C° 0 mm 2 mps 720 mmHg 15%
    19:00 +43°C° 0 mm 1 mps 721 mmHg 16%
    20:00 +42°C° 0 mm 1 mps 721 mmHg 18%
    21:00 +42°C° 0 mm 1 mps 721 mmHg 19%
    22:00 +41°C° 0 mm 1 mps 721 mmHg 20%
    23:00 +40°C° 0 mm 1 mps 721 mmHg 20%
    Show more